GW5243 Weather Reports


time (UTC)temp
F
wind
direction
speed
knots
gust
knots
rain 1hr
in
rain 24hr
in
rain mn
in
humidity
%
barometer
mb
20260510193026 64 229 2.6 7.0 0.00 0.22 0.10 65 1011.1
20260510191527 64 38 3.5 10.4 0.00 0.24 0.10 70 1011.1
20260510190016 63 141 4.3 11.3 0.00 0.26 0.10 68 1011.1
20260510184517 63 292 3.5 8.7 0.00 0.27 0.10 73 1011.1
20260510183025 61 241 1.7 6.1 0.00 0.28 0.10 77 1011.2
20260510181557 60 188 4.3 7.8 0.02 0.30 0.10 81 1011.2
20260510180037 60 279 0.9 6.1 0.02 0.32 0.10 84 1011.2
20260510174515 58 346 1.7 4.3 0.02 0.35 0.10 88 1011.4
20260510173020 57 322 1.7 3.5 0.09 0.38 0.10 86 1011.4
20260510171526 58 59 0.9 4.3 0.07 0.37 0.08 86 1011.3
20260510170026 58 9 0.0 2.6 0.07 0.39 0.08 84 1011.2
20260510164517 58 5 0.9 2.6 0.07 0.40 0.08 83 1011.2
20260510163021 60 268 1.7 2.6 0.00 0.35 0.01 76 1011.1
20260510161522 60 113 0.0 3.5 0.00 0.36 0.01 73 1011.2
20260510160010 60 117 0.9 4.3 0.00 0.39 0.01 74 1011.1
20260510154512 60 169 0.0 5.2 0.00 0.41 0.01 75 1011.0
20260510153015 60 318 0.9 7.0 0.00 0.42 0.01 75 1011.0
20260510151504 60 165 2.6 7.0 0.00 0.43 0.01 77 1010.8
20260510150006 59 229 2.6 7.0 0.00 0.45 0.01 80 1010.9
20260510144510 57 243 1.7 6.1 0.00 0.45 0.01 80 1011.0
20260510143015 58 255 0.9 4.3 0.00 0.46 0.01 83 1011.0
20260510141525 56 276 1.7 6.1 0.00 0.46 0.01 82 1011.1
20260510140004 54 240 1.7 5.2 0.00 0.46 0.01 86 1011.1
20260510134508 54 249 1.7 5.2 0.00 0.46 0.01 87 1011.4
20260510133014 54 263 2.6 5.2 0.00 0.46 0.01 89 1011.3
20260510131517 52 239 0.0 3.5 0.00 0.46 0.01 92 1011.1
20260510130023 51 208 0.9 3.5 0.00 0.46 0.01 94 1011.1
20260510124508 51 227 0.0 1.7 0.00 0.46 0.01 96 1011.2
20260510123014 50 165 0.0 2.6 0.00 0.46 0.01 97 1011.2
20260510121520 49 303 0.9 3.5 0.00 0.46 0.01 97 1011.3
20260510120020 48 169 0.0 1.7 0.00 0.46 0.01 97 1011.3
20260510114529 47 18 0.0 1.7 0.00 0.46 0.01 97 1010.9
20260510113009 47 18 0.0 0.0 0.00 0.46 0.01 97 1011.1
20260510111516 47 18 0.0 1.7 0.00 0.46 0.01 97 1011.1
20260510110020 46 18 0.0 0.9 0.00 0.46 0.01 97 1010.8
20260510104524 46 24 0.0 1.7 0.00 0.46 0.01 97 1010.6
20260510103029 0 0.0 0.0 0.00 0.46 0.01 1010.3
20260510101528 0 0.0 0.0 0.00 0.46 0.01 1009.8
20260510100035 0 0.0 0.0 0.00 0.46 0.01 1009.6
20260510094532 0 0.0 0.0 0.00 0.46 0.01 1009.6
20260510093040 0 0.0 0.0 0.00 0.46 0.01 1009.3
20260510091537 0 0.0 0.0 0.00 0.46 0.01 1009.6
20260510090034 0 0.0 0.0 0.00 0.46 0.01 1009.7
20260510084532 0 0.0 0.0 0.00 0.46 0.01 1009.9
20260510083030 0 0.0 0.0 0.00 0.46 0.01 1009.8
20260510081529 0 0.0 0.0 0.00 0.46 0.01 1010.0
20260510080031 0 0.0 0.0 0.00 0.46 0.01 1010.0
20260510074534 0 0.0 0.0 0.00 0.46 0.01 1010.1
20260510073028 0 0.0 0.0 0.00 0.46 0.01 1010.0
20260510071537 0 0.0 0.0 0.00 0.46 0.01 1010.0
20260510070028 0 0.0 0.0 0.00 0.46 0.01 1009.9
20260510064507 44 273 0.0 1.7 0.01 0.46 0.01 1010.2
20260510063005 44 117 0.0 1.7 0.01 0.46 0.01 96 1010.3
20260510061507 44 49 0.0 1.7 0.01 0.46 0.01 96 1010.4
20260510060006 44 71 0.0 1.7 0.01 0.46 0.01 96 1010.2
20260510054506 44 16 0.0 1.7 0.00 0.45 0.00 96 1010.4
20260510053009 44 32 0.0 1.7 0.00 0.45 0.00 96 1010.2
20260510051506 44 49 0.9 1.7 0.00 0.45 0.00 96 1010.2
20260510050009 44 314 0.0 1.7 0.00 0.45 0.00 96 1010.5
20260510044508 44 360 0.0 1.7 0.00 0.45 0.00 96 1010.6
20260510043013 44 5 0.0 1.7 0.00 0.45 0.00 96 1010.7
20260510041504 44 352 0.0 1.7 0.00 0.45 0.00 96 1010.7
20260510040006 44 352 0.0 1.7 0.00 0.45 0.00 96 1010.6
20260510034508 44 360 0.0 1.7 0.00 0.45 0.45 96 1010.7
20260510033009 44 346 0.0 1.7 0.00 0.45 0.45 96 1010.7
20260510031515 43 24 0.0 1.7 0.00 0.45 0.45 96 1010.7
20260510030012 43 77 0.0 1.7 0.00 0.45 0.45 96 1010.9
20260510024517 44 86 0.0 1.7 0.00 0.45 0.45 96 1011.1
20260510023010 44 66 0.0 1.7 0.00 0.45 0.45 96 1011.2
20260510021509 44 71 0.0 1.7 0.00 0.45 0.45 96 1011.1
20260510020008 44 89 0.0 1.7 0.00 0.45 0.45 96 1011.2
20260510014509 44 57 0.0 2.6 0.00 0.45 0.45 96 1011.1
20260510013010 44 64 0.0 1.7 0.00 0.45 0.45 96 1011.1
20260510011511 44 64 0.9 2.6 0.00 0.45 0.45 95 1011.1
20260510010010 44 82 0.0 2.6 0.00 0.45 0.45 95 1011.2
20260510004510 44 9 0.0 1.7 0.00 0.45 0.45 95 1011.0
20260510003038 44 72 0.0 1.7 0.00 0.45 0.45 95 1010.9
20260510001515 44 105 0.0 1.7 0.00 0.45 0.45 95 1010.8
20260510000015 44 114 0.0 3.5 0.00 0.45 0.45 94 1010.4
20260509234525 44 59 0.9 2.6 0.00 0.45 0.45 94 1010.3
20260509233017 44 125 0.9 2.6 0.00 0.45 0.45 94 1010.3
20260509231528 44 48 0.9 3.5 0.00 0.45 0.45 94 1010.3
20260509230021 44 84 0.0 1.7 0.00 0.45 0.45 94 1010.3
20260509224518 44 51 0.9 3.5 0.00 0.45 0.45 94 1010.4
20260509223016 44 128 0.0 1.7 0.01 0.45 0.45 94 1010.4
20260509221513 44 74 0.9 2.6 0.02 0.45 0.45 94 1010.5
20260509220015 44 94 0.0 1.7 0.02 0.45 0.45 94 1010.5
20260509214518 44 52 0.0 2.6 0.03 0.45 0.45 94 1010.7
20260509213019 45 37 0.9 1.7 0.03 0.44 0.44 94 1010.8
20260509211516 45 51 0.0 1.7 0.04 0.43 0.43 94 1010.7
20260509210022 45 58 0.0 1.7 0.06 0.43 0.43 94 1010.7
20260509204521 45 57 0.0 1.7 0.06 0.42 0.42 94 1010.8
20260509203023 45 51 0.0 1.7 0.08 0.41 0.41 94 1010.8
20260509201521 44 50 0.0 1.7 0.08 0.39 0.39 94 1011.0
20260509200023 45 55 0.0 1.7 0.08 0.37 0.37 93 1011.2
20260509194523 45 98 0.9 3.5 0.08 0.36 0.36 94 1011.1